Vorticity
8 10 10 11 11 10 10 8 8 8 8 8 9 8 7 7 6 6 6 5 5 4 4 4 4 4 4 4 5 7 7 9 9 8 6 6 8 9 10 7 2 1 -1 -0 7 16 18 11 6 4 3 2 5 6 7 7 5 6 7 8 3 -1 4 7 7 5 4 4 6 13 13 10 7 9 13 12 4 -0 5 5 9 9 -1 3 7 8 8 6
4 5 6 8 9 10 11 10 10 9 8 8 8 9 9 9 8 8 7 6 6 5 5 4 4 4 4 4 4 5 6 7 8 10 8 6 7 7 10 10 6 3 0 -0 1 10 19 18 9 6 4 2 4 5 7 7 6 6 7 9 2 -3 0 7 7 3 13 8 10 27 16 5 8 12 13 12 10 2 3 5 10 10 0 4 6 6 8 6
4 4 5 5 6 6 7 9 10 10 10 9 8 8 8 9 9 9 8 8 8 7 7 6 5 5 4 4 4 4 4 5 6 9 10 8 7 6 7 9 9 6 3 0 -0 3 13 22 17 9 7 5 4 4 7 6 7 6 6 10 5 1 -1 5 6 -1 13 10 10 24 11 6 8 9 8 4 11 7 1 7 8 6 1 4 5 6 7 5
4 4 4 5 5 5 5 6 7 8 9 10 10 9 8 8 9 9 9 9 8 8 8 8 7 6 6 5 5 4 4 4 4 7 9 8 9 8 6 7 9 9 7 3 1 0 4 16 20 14 11 9 6 5 8 6 6 7 6 9 5 3 0 6 7 -4 7 5 7 19 12 19 12 6 9 -3 11 14 -1 7 7 2 3 3 4 5 6 4
6 5 5 5 5 5 5 5 5 6 6 7 9 9 9 9 9 9 9 9 9 9 9 9 9 8 7 6 6 5 4 3 3 5 6 6 10 10 8 6 7 9 10 6 3 1 -0 7 14 16 15 12 9 5 7 6 4 5 6 9 6 2 -2 5 9 1 6 -1 1 12 15 28 10 -5 6 2 15 12 -4 7 5 1 4 2 5 5 4 5
7 7 6 5 6 6 5 5 5 5 5 5 6 7 9 9 9 9 9 9 9 9 9 9 10 9 9 8 7 7 5 5 4 4 3 4 7 10 10 7 6 7 9 9 5 3 1 2 8 12 14 15 11 5 5 6 5 5 7 9 7 3 -3 -4 4 2 4 2 -4 -2 5 18 11 5 12 9 11 4 1 10 4 3 4 1 6 5 5 7
9 8 8 7 6 6 6 6 6 6 5 5 5 5 6 7 8 9 9 10 9 9 8 9 10 10 10 9 8 8 7 7 6 4 3 4 5 7 10 9 8 6 6 9 8 5 2 2 5 6 11 15 11 7 5 4 5 5 7 11 8 6 1 -8 0 1 -2 6 4 2 3 6 20 22 10 7 9 9 13 9 3 6 5 3 6 6 6 7
10 9 9 9 8 7 6 6 6 7 6 5 5 5 5 5 6 7 8 9 10 10 9 8 9 10 11 10 10 9 9 8 7 6 5 4 4 4 6 9 9 7 5 8 9 8 5 3 3 4 8 11 10 9 6 3 5 4 3 7 6 8 7 -4 -1 4 1 6 8 9 4 4 21 15 7 22 18 11 14 6 6 7 4 4 4 5 7 6
9 9 9 10 10 9 7 6 6 6 7 7 6 6 5 5 4 4 5 7 8 9 10 8 8 9 10 10 11 11 10 9 7 7 6 4 5 4 4 6 8 9 7 6 8 11 9 4 3 3 4 5 7 9 10 7 3 4 0 -0 1 4 9 2 -3 3 6 7 7 9 5 5 11 3 14 34 16 9 17 10 10 7 3 5 5 7 7 5
9 9 9 9 10 11 10 8 6 6 7 7 7 7 6 6 5 4 4 4 5 6 8 9 8 8 8 9 11 12 12 10 7 7 8 6 6 5 4 5 5 8 9 8 7 9 9 6 3 0 -0 2 4 5 12 13 6 5 4 1 3 3 6 7 4 2 -1 0 6 9 7 3 5 9 21 18 4 13 18 10 7 3 3 6 6 7 4 5
13 10 9 9 10 11 11 11 9 7 7 7 7 7 7 7 5 5 5 4 4 4 5 6 7 7 7 8 9 11 13 11 8 7 9 7 6 6 5 5 4 4 8 9 7 6 7 8 5 3 2 2 3 2 6 12 11 10 9 5 5 6 7 9 10 2 -9 -6 -0 2 4 0 1 13 19 9 5 14 13 6 4 2 5 7 8 8 4 6
18 15 12 9 9 10 12 13 13 11 9 8 7 7 7 8 7 6 6 6 5 4 4 4 5 5 5 6 8 9 10 11 9 7 10 9 8 7 5 5 5 3 4 7 8 6 6 7 8 9 6 3 2 2 2 6 10 12 12 9 6 7 7 8 11 6 -3 -0 1 -2 0 1 -0 -1 4 9 7 10 9 2 1 3 5 7 7 7 6 6
18 20 18 14 11 10 13 14 14 14 13 12 10 9 8 8 8 7 6 5 5 5 5 5 4 4 4 4 6 8 8 10 10 8 10 11 9 9 8 6 6 5 3 4 7 7 6 6 7 8 7 6 3 2 3 4 6 9 10 11 10 8 3 2 7 7 3 5 6 4 3 4 5 -1 -0 7 4 5 6 1 5 7 5 6 6 6 6 6
13 17 20 20 16 12 14 16 15 14 14 14 14 12 11 9 9 9 8 6 5 6 6 5 5 5 5 4 4 4 6 9 9 8 11 12 10 9 10 8 7 7 5 3 4 6 8 8 6 6 7 8 7 5 5 4 4 5 6 9 12 16 12 4 7 8 2 4 7 6 4 3 4 4 2 0 -1 4 5 3 5 6 6 6 4 6 6 5
9 11 15 20 20 15 14 16 17 16 14 13 15 15 13 11 10 10 10 8 7 6 6 6 6 6 7 7 6 3 3 5 6 7 9 11 10 10 10 9 7 7 6 5 4 4 6 8 8 8 8 7 7 8 8 7 7 5 4 4 6 13 16 11 11 12 6 5 7 6 6 5 4 6 7 5 4 5 5 5 6 4 6 6 5 7 5 6
8 9 12 16 19 15 13 16 17 17 15 12 12 14 15 13 12 11 12 11 9 7 6 7 7 6 7 9 9 6 4 4 4 5 6 9 10 9 10 11 9 9 8 7 6 4 3 6 8 8 8 8 7 8 9 10 9 8 6 6 4 3 9 12 9 8 9 9 11 13 11 10 10 7 7 10 8 6 6 7 7 6 4 6 7 6 6 6
12 11 12 14 18 16 14 14 16 17 16 14 12 12 13 13 12 11 11 12 12 10 8 8 8 7 8 10 9 7 8 7 5 3 3 6 7 7 8 9 10 10 10 9 7 5 4 4 5 7 8 8 7 6 8 11 12 13 13 10 8 2 4 11 7 5 8 8 15 20 13 10 12 9 6 7 4 5 7 4 5 7 6 7 7 5 7 8
17 14 13 13 15 16 15 14 14 15 15 15 14 12 12 12 12 11 10 11 11 11 9 8 7 6 7 8 6 7 9 8 7 6 3 3 4 6 6 7 9 9 10 10 8 7 6 5 4 4 5 7 9 7 9 10 9 11 11 8 8 4 2 3 7 13 9 8 16 13 6 6 9 9 10 11 9 8 9 6 3 5 6 8 9 6 6 8
19 17 16 14 14 14 14 15 14 13 13 14 14 14 13 12 11 10 10 9 9 10 10 10 9 7 7 7 5 7 9 8 9 9 8 5 3 4 5 6 7 8 9 10 10 10 7 7 5 4 5 7 10 10 9 8 6 7 6 6 4 1 -0 -6 -3 8 8 11 15 3 -3 4 8 8 11 14 15 12 13 12 7 2 4 7 8 7 6 8
19 19 18 17 16 13 11 13 15 14 12 12 12 13 14 15 13 12 11 9 8 9 10 10 9 9 8 7 7 7 8 7 8 9 9 9 6 3 3 5 6 6 7 8 11 11 9 8 7 5 5 5 7 8 7 7 7 6 6 11 12 7 7 -2 -9 -4 1 7 10 3 -2 1 3 1 3 9 11 12 12 12 9 3 1 3 5 8 8 7
18 19 19 19 19 17 13 11 13 14 12 11 12 11 12 13 14 16 14 11 9 8 8 10 9 9 9 9 8 8 9 8 8 9 9 10 9 7 5 3 4 5 5 5 9 11 10 10 9 8 7 5 5 5 5 6 6 6 4 9 15 18 17 6 -4 -2 2 3 3 4 4 -1 -6 -6 2 8 8 10 11 10 12 8 4 3 5 11 8 6
17 18 19 19 19 19 18 14 11 13 13 12 11 11 12 11 11 15 16 15 14 9 8 9 9 9 9 10 10 9 10 9 9 10 9 9 9 9 9 6 4 3 4 5 6 8 9 10 11 12 10 8 6 4 4 5 6 7 5 3 7 20 26 13 4 5 3 3 2 3 6 -2 -13 -7 6 6 5 10 10 12 15 11 9 7 7 11 8 7
18 18 17 17 17 19 20 18 13 12 13 14 13 12 13 13 12 13 15 15 17 14 11 10 9 9 7 8 10 9 10 9 8 10 11 10 10 10 10 9 7 4 4 4 5 6 7 8 11 12 11 9 8 6 4 4 5 6 8 7 4 14 27 15 6 7 -2 -1 4 2 4 -1 -9 0 6 1 6 10 7 10 14 11 10 9 10 11 8 8
17 18 18 16 14 16 18 19 17 14 13 13 15 15 12 13 13 14 15 15 16 17 15 13 11 10 9 8 8 9 11 10 6 8 10 9 10 12 11 10 10 8 6 4 5 4 3 5 8 9 11 10 7 7 6 4 5 5 7 12 7 10 23 15 4 6 -3 -4 6 4 3 4 1 3 1 3 8 6 7 11 11 11 11 9 4 2 7 9
17 17 19 18 15 14 14 17 19 17 15 11 13 16 14 13 13 13 14 15 16 17 17 17 16 14 14 12 9 8 10 11 9 8 9 7 7 9 11 12 12 12 10 7 6 4 2 4 6 7 9 11 10 8 8 5 4 3 3 10 12 12 23 18 3 3 2 2 5 1 -1 2 5 1 -4 5 9 4 7 11 9 11 14 11 -2 -8 2 7
15 15 17 19 18 15 13 15 17 17 18 14 11 13 13 13 14 14 14 15 16 17 18 18 17 18 17 14 14 12 8 10 13 13 12 10 7 5 7 8 9 11 11 10 9 6 4 3 5 7 6 9 11 10 10 7 5 5 3 7 11 13 21 19 3 -1 3 7 8 8 8 3 -1 -1 0 5 7 6 8 7 10 12 12 13 7 3 6 6
13 12 12 15 17 17 16 15 15 16 17 17 14 12 11 12 13 14 13 12 14 15 16 16 17 21 20 15 16 18 13 9 9 13 14 12 10 7 7 6 6 9 9 10 11 8 6 5 4 6 6 6 8 9 12 10 7 7 5 6 6 10 17 12 3 1 -1 -0 1 3 13 13 1 1 9 5 0 7 8 6 12 12 11 13 12 14 11 5
13 12 10 11 12 14 16 16 16 15 15 18 18 14 11 10 12 14 13 11 16 16 14 14 13 15 17 15 17 19 16 10 7 11 14 12 13 12 11 9 6 8 9 10 11 10 8 7 4 3 4 5 5 6 10 11 10 9 8 7 5 6 12 6 -0 5 3 -3 -3 -6 -1 10 10 8 9 1 -1 8 6 6 14 12 9 13 15 19 14 3
16 17 17 17 16 15 14 15 17 17 16 16 17 17 15 13 12 13 12 12 17 17 13 13 11 11 13 12 14 15 17 15 10 13 15 11 13 15 14 12 9 9 9 7 9 11 10 10 7 5 4 4 3 4 7 9 10 9 7 8 7 5 10 8 1 7 7 -5 -4 1 -2 -1 4 0 -7 -10 -2 8 5 5 13 14 11 10 11 18 17 7
21 21 21 22 24 24 19 17 17 18 18 16 17 17 14 15 16 16 16 14 13 12 12 12 10 10 11 9 11 12 15 17 11 13 18 11 9 14 14 14 12 12 11 6 4 8 10 12 13 12 10 7 4 3 5 7 9 10 7 7 10 8 8 8 3 5 8 -1 -2 5 4 2 2 -4 -7 -6 -3 2 6 3 -0 3 12 13 9 11 14 13
17 15 15 16 20 24 24 23 20 18 19 18 18 17 15 18 18 14 15 11 9 9 9 9 8 10 11 9 12 12 11 15 10 10 18 14 11 17 17 14 10 9 12 9 6 6 6 8 10 13 16 14 10 5 4 4 5 8 7 5 7 10 10 10 7 3 1 2 8 7 1 3 3 0 1 3 0 -0 10 19 7 -3 4 11 12 11 12 13
13 13 14 14 15 18 21 24 24 22 20 18 19 20 19 17 10 6 9 7 6 9 9 9 6 10 15 10 10 12 10 14 11 6 11 12 12 15 15 14 11 9 10 8 7 7 4 2 2 4 11 16 16 12 9 6 4 5 8 9 7 7 8 6 7 9 1 2 16 12 -3 -5 -2 0 -2 -0 5 -3 -4 13 13 1 2 7 10 12 12 13
14 16 15 15 15 15 18 21 25 25 21 20 22 22 15 9 7 10 11 5 0 0 4 7 3 8 18 14 11 12 11 14 14 10 13 13 12 13 12 13 15 15 15 11 9 9 10 12 10 4 4 8 10 13 16 15 10 7 6 7 8 8 8 5 3 7 4 6 20 19 3 -5 -3 -0 -2 0 5 -2 -4 7 4 -3 2 5 5 8 11 12
16 18 17 18 17 16 17 18 21 23 23 23 20 17 13 13 14 14 12 9 7 5 3 3 2 7 15 12 11 12 8 11 14 14 14 9 7 11 10 9 9 11 14 13 11 8 9 16 18 9 4 2 -0 1 5 8 10 12 9 6 7 5 5 8 6 7 8 7 15 21 11 -1 -3 -1 4 4 -1 -3 6 11 4 -3 -3 -3 1 6 8 11
17 18 17 20 19 18 17 17 18 18 21 23 17 14 15 19 17 11 7 9 13 14 8 7 8 10 13 7 7 14 12 10 12 13 14 12 11 14 14 11 8 8 10 11 12 10 7 12 14 9 7 6 5 4 5 5 6 11 13 10 10 8 7 12 11 9 11 9 10 16 10 2 1 1 3 1 -3 2 6 1 4 11 8 0 -0 6 9 8
18 17 14 18 19 18 16 15 15 14 15 18 20 21 19 18 15 8 6 4 6 9 7 11 14 13 19 12 0 5 9 6 6 7 6 7 10 13 13 15 14 10 10 10 10 8 4 8 12 11 12 15 14 13 11 9 7 9 12 12 12 12 11 14 14 11 12 12 12 15 12 9 9 6 4 2 1 9 11 4 3 8 7 3 -1 3 10 10
17 15 13 15 17 18 18 15 13 11 11 10 14 21 20 19 14 9 12 9 8 10 3 5 12 11 19 21 7 3 6 3 4 6 4 -1 1 5 5 8 11 10 11 12 11 9 3 6 11 8 11 20 18 11 7 8 8 2 4 12 17 18 16 11 8 8 10 11 13 15 17 16 14 13 18 24 23 21 24 25 21 9 -6 -8 2 7 8 7
14 13 11 11 13 16 18 18 16 13 15 13 10 13 17 21 15 9 16 14 10 17 12 3 7 6 10 19 16 12 11 6 2 5 10 6 4 8 8 8 10 10 11 10 10 13 8 7 12 7 9 19 19 14 14 14 11 -0 -6 4 10 15 25 22 12 10 9 10 12 11 12 17 25 29 29 30 29 20 16 22 31 29 11 0 7 12 8 -1
10 8 9 10 11 13 11 13 16 16 20 18 13 13 13 18 18 12 17 17 8 11 10 1 1 3 4 9 12 13 14 12 8 8 14 16 14 16 15 13 12 11 14 13 11 13 12 11 14 12 14 18 15 17 18 13 19 22 16 14 11 4 9 14 14 13 9 12 16 15 15 19 26 29 18 8 7 -1 -6 4 20 26 25 24 18 11 14 6
8 5 8 11 11 13 11 8 11 12 14 11 11 16 14 12 16 15 16 19 12 8 7 3 2 6 10 10 8 11 12 12 14 17 21 23 22 20 17 15 14 12 14 15 13 11 11 11 16 17 16 14 10 14 18 11 15 20 12 12 16 10 4 4 7 7 4 8 8 10 17 11 3 7 2 -6 1 -3 -15 -10 9 15 13 22 23 11 14 18
9 5 7 10 11 13 12 7 7 10 11 9 8 14 13 8 12 15 14 16 16 14 13 10 7 8 14 15 11 9 10 9 12 15 18 18 18 19 18 15 15 15 15 15 14 13 9 9 16 19 14 11 10 10 14 13 12 12 7 4 4 1 -3 -4 2 4 4 6 2 2 8 0 -2 11 7 -1 10 16 2 -8 6 20 15 14 24 21 12 12
9 7 6 6 7 12 13 7 6 10 12 12 10 11 12 9 9 13 13 13 12 14 16 15 13 11 10 13 13 10 8 8 7 7 9 10 11 14 16 15 14 15 16 15 14 16 14 10 14 16 10 10 13 12 10 10 11 13 15 10 3 4 6 2 4 6 6 11 15 14 6 -6 -1 7 -1 -2 11 19 21 13 3 9 14 9 14 23 19 11
8 6 6 6 4 6 9 8 9 11 10 11 11 11 12 10 10 11 12 10 8 10 14 13 11 11 8 7 10 8 4 3 3 3 5 5 6 7 8 10 10 10 12 12 12 15 15 14 15 16 16 14 14 16 13 9 11 13 13 14 13 13 15 12 8 8 11 18 27 31 18 2 2 -2 -13 -6 10 14 14 7 -9 -9 3 4 -1 7 16 19
12 8 7 6 5 3 3 6 9 8 6 8 10 12 11 9 9 11 9 5 3 3 6 6 4 5 5 3 6 8 6 3 2 3 4 4 5 6 5 6 6 5 5 6 9 12 12 14 14 14 21 16 7 13 17 10 13 14 9 15 17 7 5 10 9 6 8 7 12 26 26 16 17 12 -6 -12 2 17 15 1 -5 -1 4 5 1 1 6 13
14 12 10 5 4 5 5 6 7 6 5 5 4 8 11 8 6 9 6 3 2 0 1 5 3 2 2 2 3 6 7 8 8 7 6 5 5 6 6 6 6 7 5 3 6 9 9 13 13 12 20 15 -1 3 12 10 11 12 6 7 15 9 1 7 10 5 5 1 4 22 20 9 18 20 3 -6 2 16 16 7 6 4 2 5 7 7 5 6
18 14 12 10 7 5 6 7 6 7 9 6 1 3 8 9 7 8 6 3 5 3 1 4 3 3 5 4 4 5 3 7 11 10 8 9 9 9 8 7 7 8 8 5 4 6 7 10 12 12 18 20 6 -4 1 5 5 9 8 4 12 13 1 3 8 4 5 3 7 22 13 -3 10 16 1 -0 12 15 9 8 9 1 1 12 20 26 17 -1
26 19 13 14 13 8 7 8 7 7 9 8 7 5 6 8 8 7 8 7 6 5 4 6 4 3 6 7 7 8 5 7 13 12 11 13 14 15 14 13 11 10 11 10 7 6 5 6 9 11 13 20 19 4 -3 1 2 7 11 8 13 13 3 3 7 4 7 4 4 18 11 -6 4 15 0 -9 6 19 11 6 10 -1 -8 4 12 22 26 9
26 23 17 16 15 12 10 9 8 8 8 9 10 9 7 9 9 8 7 7 7 6 5 8 8 8 12 12 11 12 13 15 15 15 15 15 14 15 18 20 19 16 15 15 13 11 8 5 5 7 8 14 22 16 4 -1 0 4 11 14 14 10 4 4 5 5 7 3 4 14 9 -2 1 8 -1 -15 -6 21 20 6 12 6 -7 -1 -3 -9 5 14
19 21 22 21 20 19 17 14 13 12 11 10 10 10 10 9 9 9 7 6 9 9 7 9 12 13 13 12 14 18 19 15 12 14 16 17 17 15 16 19 22 24 23 21 22 18 13 12 9 6 6 6 14 23 18 7 -1 -3 4 13 13 7 7 8 4 5 7 1 2 8 6 7 8 2 -2 -8 -7 16 21 3 7 13 2 3 3 -8 -4 9
16 14 17 18 16 16 16 15 14 13 12 11 10 11 10 8 8 8 9 10 10 11 13 12 12 12 9 13 20 21 15 12 14 16 15 15 14 13 13 14 17 26 30 29 32 30 22 18 14 12 11 6 5 14 20 20 10 -5 -7 5 11 6 7 11 8 5 8 3 -3 -1 4 12 12 -0 -2 1 -4 3 14 7 11 26 18 3 5 9 10 17
15 12 13 13 10 9 11 12 13 12 12 13 13 12 11 11 12 11 12 13 11 13 15 11 10 11 10 17 24 18 11 13 16 13 11 11 13 13 15 14 12 19 28 30 33 37 36 32 25 22 17 9 7 12 14 20 23 8 -8 -7 5 9 8 13 14 7 8 8 -4 -9 2 15 16 4 -2 3 -4 -9 3 8 9 28 31 7 -5 4 8 13
14 13 14 15 13 13 14 16 17 16 15 14 14 14 13 13 14 13 13 14 13 13 12 12 14 13 11 18 20 11 9 14 13 12 11 10 11 13 15 15 11 10 17 26 27 27 31 34 36 40 30 12 15 23 15 13 23 23 7 -10 -10 3 8 8 10 8 9 10 -1 -7 4 15 17 8 -1 1 -2 -8 -1 1 -6 14 40 25 -3 -3 4 1
Height
5872 5871 5870 5870 5869 5869 5869 5869 5869 5869 5869 5869 5869 5869 5870 5870 5870 5871 5871 5872 5872 5873 5873 5874 5875 5876 5876 5877 5877 5878 5878 5878 5877 5878 5878 5879 5880 5880 5881 5883 5883 5883 5884 5884 5885 5886 5887 5888 5889 5891 5892 5894 5896 5898 5899 5900 5901 5901 5902 5902 5902 5902 5902 5903 5904 5905 5904 5904 5904 5904 5905 5906 5906 5907 5907 5908 5909 5912 5913 5912 5915 5915 5915 5915 5915 5915 5916 5917
5870 5869 5869 5868 5867 5867 5866 5866 5865 5865 5865 5866 5866 5866 5866 5867 5867 5868 5868 5869 5869 5870 5871 5872 5872 5873 5874 5875 5875 5876 5876 5876 5876 5876 5877 5878 5879 5879 5880 5881 5881 5882 5883 5883 5884 5885 5886 5887 5888 5889 5890 5893 5895 5897 5898 5899 5899 5900 5901 5901 5901 5901 5902 5904 5905 5905 5904 5903 5904 5904 5905 5906 5906 5906 5906 5907 5909 5912 5912 5913 5916 5916 5915 5915 5915 5915 5916 5917
5868 5867 5867 5866 5865 5864 5864 5863 5863 5862 5862 5862 5862 5863 5863 5864 5864 5865 5865 5866 5866 5867 5868 5869 5870 5871 5872 5872 5873 5874 5874 5874 5874 5874 5875 5876 5877 5878 5878 5879 5879 5880 5882 5882 5883 5884 5885 5886 5887 5888 5889 5892 5894 5895 5896 5898 5898 5899 5900 5900 5900 5900 5901 5904 5905 5905 5904 5903 5903 5904 5905 5905 5906 5905 5906 5908 5909 5910 5912 5914 5916 5915 5914 5914 5915 5916 5916 5917
5865 5865 5864 5864 5863 5862 5862 5861 5860 5860 5859 5859 5859 5859 5859 5860 5861 5862 5862 5863 5863 5864 5865 5866 5867 5868 5869 5870 5870 5871 5871 5872 5873 5873 5874 5874 5875 5876 5877 5877 5878 5879 5880 5881 5882 5883 5884 5885 5886 5887 5888 5890 5893 5894 5895 5896 5897 5897 5898 5899 5900 5900 5901 5903 5905 5905 5904 5903 5903 5904 5905 5904 5905 5905 5906 5908 5909 5910 5913 5916 5915 5913 5913 5914 5915 5916 5916 5917
5861 5861 5861 5861 5860 5860 5859 5859 5858 5857 5856 5856 5856 5856 5856 5856 5857 5858 5859 5859 5860 5861 5862 5863 5864 5865 5866 5867 5868 5869 5869 5869 5871 5871 5872 5872 5873 5874 5875 5876 5876 5877 5879 5879 5880 5882 5883 5884 5885 5886 5887 5889 5891 5893 5894 5895 5896 5896 5897 5898 5898 5898 5899 5902 5904 5904 5905 5904 5903 5904 5905 5905 5905 5905 5906 5908 5908 5910 5912 5913 5913 5912 5912 5913 5914 5915 5916 5917
5857 5857 5857 5857 5856 5856 5856 5856 5855 5855 5854 5853 5853 5853 5853 5853 5854 5854 5855 5856 5857 5857 5858 5859 5861 5862 5863 5864 5865 5866 5866 5867 5869 5869 5870 5870 5871 5872 5873 5874 5875 5876 5877 5877 5879 5880 5882 5883 5884 5885 5886 5888 5890 5892 5893 5893 5895 5896 5897 5897 5897 5896 5898 5902 5903 5904 5905 5905 5904 5905 5905 5906 5906 5905 5906 5908 5908 5909 5910 5909 5911 5911 5912 5914 5914 5915 5916 5917
5853 5853 5852 5852 5852 5852 5852 5852 5852 5852 5851 5851 5850 5850 5850 5850 5850 5851 5851 5852 5853 5854 5855 5856 5857 5859 5860 5861 5862 5863 5864 5864 5865 5867 5867 5868 5869 5870 5871 5872 5873 5874 5874 5875 5877 5878 5880 5882 5883 5883 5885 5887 5887 5889 5891 5892 5894 5895 5896 5896 5895 5894 5896 5901 5903 5903 5904 5905 5904 5904 5905 5906 5906 5905 5907 5907 5906 5908 5908 5908 5910 5911 5914 5914 5914 5915 5916 5917
5849 5848 5848 5848 5848 5847 5847 5847 5847 5848 5848 5847 5847 5847 5847 5847 5847 5847 5848 5848 5850 5851 5852 5853 5854 5855 5856 5857 5859 5861 5862 5862 5862 5863 5865 5866 5867 5868 5869 5870 5871 5872 5873 5874 5875 5877 5879 5881 5881 5882 5884 5884 5884 5887 5890 5892 5892 5893 5894 5894 5893 5893 5895 5900 5902 5903 5904 5904 5903 5904 5905 5906 5905 5906 5907 5907 5906 5906 5907 5908 5909 5911 5914 5914 5913 5914 5916 5917
5845 5844 5843 5843 5843 5842 5842 5842 5843 5843 5843 5843 5843 5843 5843 5843 5844 5844 5845 5845 5846 5847 5848 5849 5850 5852 5853 5854 5856 5858 5859 5859 5858 5859 5862 5863 5864 5866 5867 5868 5869 5869 5871 5872 5874 5876 5877 5878 5880 5880 5881 5881 5882 5884 5888 5890 5890 5890 5890 5891 5891 5892 5895 5899 5901 5903 5904 5903 5903 5904 5905 5905 5905 5906 5906 5907 5907 5907 5907 5908 5909 5911 5914 5913 5913 5914 5915 5917
5840 5839 5838 5838 5837 5837 5837 5837 5837 5838 5838 5838 5839 5839 5840 5840 5840 5841 5841 5842 5843 5844 5845 5846 5847 5849 5850 5851 5853 5855 5856 5857 5854 5855 5858 5860 5862 5863 5864 5866 5866 5867 5869 5871 5872 5873 5874 5875 5876 5877 5878 5879 5881 5883 5886 5888 5888 5888 5889 5891 5892 5892 5894 5899 5902 5903 5903 5903 5904 5904 5905 5905 5906 5906 5906 5907 5908 5908 5908 5909 5910 5912 5913 5913 5913 5914 5915 5916
5835 5834 5833 5832 5832 5832 5832 5832 5832 5833 5833 5833 5834 5834 5835 5836 5837 5837 5838 5838 5839 5841 5842 5843 5844 5845 5847 5848 5849 5851 5853 5853 5852 5851 5855 5858 5859 5860 5862 5863 5864 5865 5867 5869 5870 5871 5871 5873 5874 5875 5877 5879 5880 5882 5884 5885 5886 5887 5889 5891 5892 5892 5894 5899 5901 5902 5903 5903 5904 5905 5905 5906 5906 5907 5907 5908 5909 5909 5909 5910 5911 5912 5912 5912 5913 5914 5915 5916
5830 5829 5828 5827 5826 5826 5826 5826 5827 5827 5827 5828 5828 5829 5830 5831 5832 5833 5834 5835 5836 5837 5838 5840 5841 5842 5843 5844 5846 5848 5849 5850 5850 5849 5852 5855 5857 5858 5859 5861 5862 5863 5865 5866 5867 5868 5869 5870 5872 5874 5876 5877 5878 5880 5881 5883 5885 5887 5888 5890 5890 5891 5893 5896 5898 5900 5902 5902 5903 5904 5905 5905 5906 5907 5908 5909 5910 5910 5910 5911 5911 5911 5911 5912 5913 5914 5915 5916
5825 5824 5823 5822 5821 5821 5821 5821 5821 5821 5821 5822 5823 5824 5825 5826 5827 5829 5830 5831 5832 5833 5835 5836 5838 5839 5840 5841 5843 5844 5845 5847 5848 5848 5849 5852 5854 5855 5856 5858 5859 5861 5862 5863 5864 5866 5867 5868 5870 5872 5873 5875 5876 5879 5880 5882 5884 5885 5887 5888 5888 5889 5892 5894 5896 5898 5900 5901 5901 5903 5904 5905 5906 5907 5908 5909 5910 5910 5910 5911 5911 5911 5911 5912 5913 5913 5914 5915
5820 5819 5817 5816 5816 5816 5815 5816 5816 5816 5816 5816 5817 5818 5820 5821 5822 5824 5825 5827 5828 5829 5831 5832 5834 5836 5836 5838 5839 5841 5842 5844 5845 5846 5847 5849 5850 5852 5853 5855 5856 5858 5860 5861 5862 5863 5865 5867 5868 5869 5871 5873 5875 5878 5879 5881 5883 5884 5886 5887 5888 5889 5890 5892 5894 5897 5899 5900 5900 5902 5903 5905 5906 5907 5908 5909 5909 5910 5910 5911 5911 5911 5912 5912 5913 5913 5914 5915
5815 5813 5812 5811 5811 5810 5810 5810 5811 5811 5811 5811 5812 5813 5814 5816 5817 5819 5820 5822 5824 5825 5827 5829 5830 5831 5833 5834 5836 5837 5839 5841 5842 5843 5845 5846 5847 5849 5850 5852 5853 5855 5856 5858 5859 5861 5862 5864 5866 5868 5870 5871 5873 5876 5877 5880 5882 5883 5885 5886 5887 5888 5888 5890 5893 5895 5897 5898 5899 5901 5902 5904 5905 5905 5906 5907 5908 5909 5910 5911 5911 5911 5912 5913 5913 5913 5914 5914
5810 5808 5806 5805 5805 5805 5804 5805 5805 5805 5806 5806 5807 5808 5809 5811 5812 5814 5816 5817 5819 5821 5823 5824 5826 5827 5829 5830 5832 5834 5835 5837 5838 5840 5842 5843 5844 5846 5847 5849 5851 5852 5854 5855 5857 5858 5860 5862 5865 5866 5868 5869 5871 5873 5876 5878 5880 5881 5883 5884 5886 5887 5887 5888 5891 5894 5895 5897 5899 5900 5901 5902 5903 5904 5905 5906 5907 5908 5910 5911 5911 5911 5912 5912 5913 5913 5913 5914
5804 5802 5801 5800 5799 5799 5799 5799 5800 5800 5801 5801 5802 5803 5804 5806 5807 5809 5811 5813 5815 5817 5819 5820 5822 5823 5824 5826 5828 5830 5831 5833 5835 5836 5838 5840 5842 5843 5845 5846 5848 5849 5851 5852 5854 5855 5858 5860 5862 5864 5865 5867 5870 5872 5874 5877 5878 5879 5880 5882 5884 5885 5885 5886 5888 5891 5893 5895 5897 5898 5899 5901 5901 5902 5904 5905 5906 5907 5909 5910 5911 5911 5911 5912 5912 5912 5913 5913
5799 5797 5795 5794 5794 5794 5794 5794 5794 5795 5795 5796 5797 5798 5799 5801 5802 5804 5806 5808 5810 5812 5814 5815 5818 5819 5820 5822 5824 5826 5828 5830 5832 5833 5835 5837 5838 5840 5842 5843 5845 5846 5847 5849 5851 5853 5855 5857 5859 5861 5863 5866 5868 5871 5873 5874 5874 5876 5877 5878 5880 5882 5883 5885 5886 5888 5890 5892 5895 5896 5897 5899 5900 5901 5902 5904 5905 5906 5907 5909 5909 5909 5910 5911 5911 5911 5912 5912
5794 5792 5790 5789 5789 5788 5788 5789 5789 5790 5791 5792 5793 5793 5795 5796 5798 5799 5801 5803 5805 5807 5809 5811 5813 5815 5817 5819 5821 5822 5824 5826 5828 5829 5831 5833 5835 5837 5839 5840 5841 5843 5844 5846 5848 5850 5852 5854 5856 5859 5862 5865 5867 5869 5870 5870 5871 5873 5873 5874 5876 5878 5880 5882 5883 5884 5887 5889 5892 5895 5896 5897 5899 5900 5901 5903 5904 5905 5906 5907 5908 5908 5909 5909 5910 5910 5911 5911
5789 5787 5785 5784 5783 5783 5783 5784 5784 5785 5786 5787 5788 5789 5790 5792 5794 5795 5796 5799 5801 5803 5805 5807 5809 5811 5813 5815 5817 5818 5820 5822 5824 5825 5827 5829 5831 5834 5836 5837 5839 5840 5842 5844 5846 5847 5849 5851 5854 5858 5860 5862 5864 5865 5866 5866 5868 5870 5871 5873 5876 5878 5879 5880 5879 5880 5883 5885 5889 5892 5894 5895 5897 5898 5900 5902 5904 5905 5905 5906 5906 5907 5907 5907 5908 5909 5910 5910
5784 5782 5780 5779 5778 5778 5778 5779 5779 5780 5781 5781 5783 5784 5785 5787 5789 5790 5792 5794 5796 5799 5800 5802 5805 5807 5808 5810 5812 5814 5816 5818 5820 5822 5824 5826 5828 5830 5832 5834 5836 5838 5839 5841 5842 5844 5846 5849 5853 5855 5857 5858 5860 5862 5863 5864 5866 5867 5869 5872 5875 5878 5880 5879 5878 5878 5880 5882 5885 5889 5892 5894 5895 5897 5899 5901 5902 5903 5904 5904 5905 5905 5906 5906 5907 5908 5909 5909
5779 5777 5775 5774 5773 5773 5773 5774 5775 5775 5776 5777 5778 5779 5781 5783 5784 5786 5788 5790 5792 5794 5796 5798 5800 5802 5804 5806 5808 5810 5812 5814 5816 5818 5820 5822 5824 5826 5828 5831 5833 5835 5836 5838 5839 5841 5844 5848 5851 5852 5853 5855 5857 5858 5860 5862 5863 5864 5867 5870 5873 5877 5878 5878 5877 5876 5877 5880 5883 5887 5890 5892 5894 5895 5897 5899 5901 5902 5903 5903 5903 5904 5905 5905 5906 5907 5908 5909
5775 5773 5771 5769 5769 5768 5768 5769 5770 5771 5772 5772 5773 5775 5776 5778 5780 5782 5784 5785 5788 5790 5792 5794 5796 5797 5800 5801 5803 5806 5808 5811 5813 5814 5816 5818 5820 5822 5825 5827 5829 5831 5833 5835 5837 5839 5843 5846 5847 5848 5850 5851 5853 5855 5858 5859 5861 5862 5865 5868 5871 5875 5876 5876 5875 5874 5875 5877 5880 5883 5886 5888 5891 5893 5895 5898 5899 5900 5901 5902 5902 5903 5903 5904 5904 5906 5907 5908
5770 5768 5767 5765 5764 5764 5763 5764 5765 5766 5767 5769 5769 5770 5772 5774 5776 5778 5780 5781 5783 5785 5787 5790 5792 5793 5795 5797 5799 5802 5804 5807 5810 5810 5812 5815 5817 5819 5821 5824 5826 5828 5830 5832 5835 5837 5840 5842 5843 5844 5846 5848 5850 5852 5854 5857 5859 5860 5863 5867 5870 5872 5874 5874 5874 5874 5874 5875 5877 5879 5881 5884 5887 5891 5893 5895 5896 5898 5899 5900 5900 5901 5902 5902 5903 5905 5906 5907
5766 5764 5763 5762 5760 5759 5759 5759 5760 5762 5763 5765 5765 5765 5768 5770 5772 5774 5776 5778 5779 5781 5783 5785 5787 5788 5790 5793 5795 5797 5800 5804 5805 5806 5808 5811 5813 5816 5817 5820 5822 5824 5826 5829 5831 5834 5837 5838 5839 5842 5844 5845 5847 5849 5851 5854 5856 5858 5861 5865 5868 5870 5872 5873 5873 5874 5874 5873 5874 5877 5879 5883 5886 5888 5891 5892 5894 5895 5896 5897 5897 5898 5900 5901 5903 5904 5905 5906
5762 5760 5759 5758 5757 5755 5755 5755 5756 5758 5759 5760 5761 5762 5764 5766 5768 5770 5772 5774 5776 5777 5779 5780 5782 5784 5786 5789 5791 5793 5797 5800 5800 5802 5805 5807 5810 5812 5813 5815 5818 5820 5822 5824 5826 5830 5833 5835 5836 5839 5841 5843 5845 5846 5849 5851 5854 5856 5859 5862 5865 5868 5870 5871 5872 5873 5874 5873 5873 5876 5878 5881 5883 5885 5888 5890 5891 5892 5894 5895 5895 5897 5899 5900 5902 5903 5904 5905
5759 5757 5755 5755 5754 5751 5751 5752 5752 5754 5755 5756 5757 5759 5761 5763 5765 5767 5769 5771 5772 5773 5774 5776 5779 5780 5782 5785 5786 5789 5792 5794 5796 5799 5801 5803 5805 5807 5809 5811 5813 5815 5817 5820 5824 5827 5829 5831 5833 5835 5838 5840 5842 5844 5846 5848 5851 5854 5858 5859 5862 5864 5866 5867 5868 5870 5872 5871 5871 5874 5876 5878 5879 5882 5885 5887 5888 5890 5891 5893 5894 5895 5897 5899 5900 5902 5904 5904
5755 5753 5751 5751 5751 5749 5748 5748 5748 5750 5752 5752 5753 5755 5758 5759 5761 5763 5765 5767 5769 5770 5771 5773 5775 5777 5779 5781 5783 5785 5787 5790 5793 5795 5797 5799 5801 5803 5804 5807 5809 5811 5814 5818 5821 5823 5825 5827 5829 5831 5834 5837 5840 5842 5843 5845 5848 5852 5855 5856 5858 5861 5863 5864 5865 5868 5869 5868 5868 5871 5873 5873 5876 5879 5881 5883 5885 5887 5890 5892 5893 5894 5896 5898 5899 5901 5903 5904
5752 5750 5748 5747 5747 5746 5745 5745 5745 5747 5748 5749 5750 5752 5754 5756 5758 5760 5762 5764 5766 5767 5768 5770 5772 5774 5776 5778 5779 5782 5784 5786 5789 5791 5793 5795 5796 5797 5799 5803 5805 5807 5810 5814 5817 5820 5822 5824 5826 5829 5832 5834 5836 5838 5840 5842 5845 5848 5851 5853 5855 5857 5860 5861 5862 5864 5866 5865 5867 5869 5870 5871 5873 5877 5878 5880 5883 5886 5890 5892 5892 5894 5895 5896 5898 5899 5901 5903
5749 5748 5746 5744 5743 5743 5742 5742 5742 5743 5744 5746 5747 5749 5751 5753 5755 5756 5758 5760 5762 5764 5766 5768 5770 5771 5773 5775 5777 5779 5781 5783 5786 5787 5789 5791 5791 5793 5795 5798 5800 5802 5806 5810 5813 5816 5818 5821 5825 5827 5830 5832 5834 5836 5838 5840 5841 5844 5846 5849 5851 5853 5856 5858 5859 5861 5862 5863 5867 5869 5868 5869 5870 5873 5876 5880 5884 5887 5889 5890 5891 5892 5894 5895 5897 5898 5900 5901
5748 5746 5744 5742 5741 5740 5739 5739 5739 5740 5741 5743 5744 5746 5748 5750 5751 5752 5755 5757 5759 5761 5763 5764 5767 5769 5770 5772 5774 5776 5778 5780 5782 5784 5785 5786 5787 5788 5790 5792 5794 5798 5802 5806 5809 5811 5814 5817 5821 5824 5827 5828 5830 5833 5835 5837 5838 5840 5843 5845 5847 5850 5852 5854 5856 5858 5858 5862 5867 5867 5866 5867 5868 5871 5875 5880 5884 5887 5889 5889 5890 5891 5892 5894 5895 5896 5898 5899
5746 5744 5742 5741 5739 5738 5737 5737 5737 5737 5738 5740 5742 5743 5745 5746 5747 5749 5752 5753 5755 5757 5759 5761 5764 5766 5767 5769 5771 5773 5775 5776 5778 5780 5782 5783 5782 5782 5784 5788 5792 5796 5799 5802 5805 5807 5810 5813 5816 5819 5821 5823 5826 5830 5832 5833 5835 5837 5840 5842 5844 5846 5848 5850 5852 5854 5856 5860 5865 5866 5865 5864 5866 5870 5874 5877 5882 5886 5888 5889 5889 5890 5891 5892 5893 5894 5896 5897
5745 5743 5741 5739 5738 5737 5736 5735 5735 5735 5736 5738 5739 5740 5741 5743 5745 5747 5748 5750 5752 5753 5755 5757 5760 5762 5764 5766 5768 5770 5771 5772 5774 5776 5778 5778 5776 5777 5782 5787 5790 5793 5796 5798 5801 5804 5808 5810 5812 5814 5815 5817 5822 5825 5827 5829 5831 5833 5836 5839 5841 5842 5844 5846 5848 5851 5855 5860 5864 5865 5864 5862 5864 5869 5873 5876 5881 5884 5886 5887 5888 5889 5890 5890 5891 5892 5894 5895
5744 5742 5740 5738 5737 5736 5735 5735 5734 5735 5735 5736 5737 5738 5740 5742 5744 5745 5746 5748 5750 5750 5751 5754 5757 5760 5761 5763 5765 5767 5768 5770 5772 5772 5772 5772 5772 5775 5781 5784 5787 5790 5792 5794 5797 5802 5805 5806 5808 5809 5810 5813 5818 5821 5822 5825 5827 5830 5832 5835 5837 5839 5842 5844 5847 5849 5854 5858 5862 5863 5861 5859 5863 5869 5872 5875 5878 5880 5882 5884 5885 5886 5888 5888 5889 5890 5891 5894
5744 5742 5739 5738 5737 5736 5735 5735 5735 5735 5735 5735 5736 5737 5739 5741 5742 5743 5744 5747 5749 5750 5752 5753 5755 5757 5758 5761 5762 5763 5765 5768 5768 5766 5767 5769 5771 5775 5780 5782 5785 5787 5789 5792 5795 5800 5802 5802 5804 5805 5806 5810 5815 5818 5819 5821 5824 5826 5828 5831 5834 5836 5840 5843 5845 5847 5850 5853 5856 5858 5857 5857 5862 5868 5870 5872 5874 5876 5879 5881 5882 5883 5885 5886 5887 5889 5890 5891
5743 5741 5740 5738 5737 5736 5735 5735 5735 5735 5735 5735 5736 5738 5739 5740 5742 5742 5744 5746 5747 5749 5752 5752 5753 5754 5756 5758 5759 5759 5761 5764 5763 5762 5763 5767 5769 5773 5778 5780 5782 5783 5786 5789 5792 5796 5798 5799 5801 5803 5805 5809 5812 5814 5815 5818 5821 5823 5825 5828 5831 5834 5838 5840 5842 5844 5846 5847 5849 5853 5856 5859 5863 5866 5868 5870 5871 5872 5874 5877 5878 5880 5881 5883 5885 5888 5889 5890
5744 5742 5740 5739 5737 5736 5736 5735 5735 5735 5736 5736 5737 5739 5740 5741 5742 5743 5745 5746 5746 5748 5750 5751 5752 5754 5755 5756 5756 5757 5758 5759 5759 5758 5760 5765 5768 5771 5775 5778 5779 5780 5783 5786 5789 5792 5795 5796 5798 5800 5804 5806 5807 5809 5812 5816 5818 5819 5822 5825 5828 5831 5833 5834 5837 5839 5841 5842 5845 5850 5854 5858 5861 5864 5867 5869 5870 5871 5872 5873 5875 5877 5878 5880 5883 5886 5888 5889
5744 5743 5741 5740 5739 5738 5737 5736 5736 5736 5736 5737 5738 5739 5740 5741 5742 5743 5745 5746 5746 5747 5749 5750 5752 5754 5755 5756 5756 5757 5757 5756 5756 5757 5761 5765 5767 5769 5772 5774 5775 5777 5780 5783 5786 5790 5793 5793 5795 5798 5801 5802 5802 5806 5810 5813 5814 5816 5817 5819 5822 5825 5827 5829 5831 5834 5837 5838 5842 5848 5852 5855 5859 5863 5865 5866 5867 5869 5869 5871 5872 5873 5875 5877 5880 5883 5885 5887
5745 5743 5742 5741 5740 5739 5738 5738 5737 5738 5738 5738 5739 5740 5741 5741 5742 5743 5745 5745 5746 5746 5748 5750 5752 5753 5754 5755 5756 5756 5756 5756 5756 5758 5762 5765 5766 5768 5770 5771 5772 5774 5776 5780 5783 5786 5788 5790 5792 5795 5797 5797 5798 5802 5806 5808 5811 5814 5813 5813 5815 5818 5821 5824 5826 5829 5833 5836 5841 5845 5849 5854 5857 5858 5858 5858 5858 5860 5862 5865 5868 5869 5872 5875 5878 5880 5882 5885
5745 5744 5743 5743 5741 5740 5740 5739 5739 5739 5739 5739 5740 5741 5742 5742 5742 5743 5744 5744 5745 5746 5747 5749 5750 5751 5752 5754 5754 5754 5755 5756 5756 5758 5761 5764 5765 5766 5767 5768 5770 5771 5774 5777 5778 5781 5784 5786 5789 5792 5794 5794 5795 5798 5802 5803 5807 5809 5809 5808 5809 5812 5815 5819 5823 5826 5829 5833 5838 5842 5848 5853 5851 5849 5850 5851 5851 5854 5856 5859 5863 5866 5868 5871 5874 5877 5879 5882
5746 5745 5744 5743 5742 5741 5741 5741 5740 5740 5740 5740 5740 5741 5741 5741 5741 5742 5743 5744 5744 5745 5747 5748 5749 5750 5751 5752 5752 5752 5753 5755 5755 5757 5759 5761 5762 5763 5764 5765 5767 5768 5771 5774 5775 5776 5779 5783 5787 5789 5790 5792 5793 5795 5797 5800 5802 5804 5804 5804 5805 5808 5811 5816 5821 5823 5825 5830 5833 5838 5846 5846 5841 5841 5845 5846 5848 5851 5854 5856 5859 5862 5865 5868 5871 5873 5876 5878
5746 5745 5745 5744 5744 5743 5742 5742 5741 5741 5741 5741 5741 5741 5741 5741 5741 5742 5742 5743 5744 5745 5746 5747 5749 5749 5750 5750 5750 5751 5752 5752 5753 5755 5757 5758 5758 5759 5761 5762 5763 5765 5767 5769 5771 5773 5775 5778 5783 5786 5787 5790 5792 5792 5794 5796 5798 5799 5799 5800 5803 5807 5810 5813 5817 5819 5822 5826 5829 5835 5841 5838 5835 5840 5843 5842 5845 5848 5851 5853 5854 5857 5861 5864 5868 5870 5872 5875
5746 5745 5745 5744 5744 5743 5742 5742 5742 5742 5742 5742 5741 5741 5741 5741 5741 5741 5742 5742 5743 5744 5745 5746 5747 5747 5748 5749 5749 5749 5749 5750 5751 5752 5754 5755 5755 5756 5757 5758 5759 5760 5762 5764 5766 5768 5770 5772 5777 5781 5784 5787 5788 5787 5790 5793 5794 5793 5795 5798 5802 5804 5806 5808 5811 5815 5817 5820 5824 5829 5833 5832 5833 5838 5839 5838 5841 5842 5845 5847 5848 5850 5854 5858 5863 5867 5870 5873
5746 5745 5744 5744 5744 5743 5743 5742 5742 5742 5742 5742 5741 5741 5741 5741 5741 5741 5741 5742 5743 5743 5743 5744 5745 5745 5746 5746 5747 5747 5747 5747 5748 5749 5750 5752 5752 5753 5753 5754 5755 5755 5757 5759 5761 5763 5765 5766 5770 5775 5779 5783 5783 5783 5785 5788 5788 5788 5791 5795 5798 5799 5800 5803 5807 5810 5813 5816 5820 5824 5827 5828 5830 5833 5834 5835 5836 5837 5840 5843 5843 5846 5851 5854 5859 5862 5866 5870
5746 5745 5744 5744 5744 5743 5742 5742 5741 5741 5741 5741 5741 5740 5740 5740 5740 5740 5741 5741 5741 5742 5742 5742 5743 5744 5744 5744 5745 5745 5745 5745 5745 5746 5746 5747 5747 5748 5749 5750 5751 5752 5753 5754 5757 5759 5760 5762 5765 5768 5772 5777 5778 5778 5780 5781 5782 5784 5787 5790 5792 5794 5796 5799 5803 5806 5809 5813 5816 5820 5823 5825 5826 5828 5830 5831 5831 5832 5836 5838 5841 5845 5850 5855 5858 5860 5863 5867
5745 5744 5743 5743 5743 5743 5742 5741 5741 5740 5740 5740 5740 5740 5739 5739 5739 5739 5739 5739 5739 5740 5740 5740 5741 5741 5741 5742 5742 5742 5742 5742 5742 5742 5742 5742 5742 5742 5743 5745 5746 5747 5748 5750 5752 5754 5755 5757 5760 5762 5766 5770 5771 5772 5773 5775 5778 5781 5783 5785 5788 5790 5793 5796 5799 5802 5806 5810 5813 5817 5821 5821 5821 5823 5827 5827 5827 5828 5831 5834 5839 5844 5849 5853 5856 5857 5859 5860
5744 5743 5743 5742 5742 5742 5741 5741 5740 5739 5739 5738 5738 5738 5738 5737 5737 5737 5737 5737 5737 5737 5737 5737 5738 5738 5737 5738 5738 5738 5738 5738 5737 5738 5738 5738 5737 5736 5737 5739 5740 5741 5743 5743 5745 5747 5750 5753 5754 5755 5759 5762 5765 5766 5766 5769 5773 5777 5779 5781 5784 5787 5789 5792 5796 5799 5802 5806 5809 5813 5816 5815 5814 5819 5823 5824 5824 5825 5826 5830 5836 5842 5847 5850 5850 5851 5852 5852
5744 5742 5742 5742 5741 5741 5740 5740 5739 5738 5738 5737 5737 5736 5736 5736 5735 5735 5735 5735 5735 5735 5734 5734 5734 5734 5734 5734 5734 5734 5734 5734 5733 5734 5734 5734 5733 5732 5732 5733 5733 5734 5736 5736 5738 5741 5744 5746 5747 5749 5752 5756 5759 5761 5762 5764 5769 5772 5774 5776 5779 5782 5784 5788 5792 5795 5797 5801 5804 5807 5809 5807 5808 5814 5819 5820 5821 5822 5824 5828 5832 5836 5841 5846 5847 5847 5848 5849
5744 5743 5742 5741 5741 5740 5739 5739 5738 5737 5736 5736 5735 5734 5734 5734 5733 5733 5733 5732 5732 5732 5731 5731 5731 5731 5730 5730 5730 5730 5730 5730 5729 5730 5731 5730 5730 5730 5729 5729 5728 5728 5729 5730 5731 5733 5736 5737 5739 5742 5745 5749 5753 5754 5756 5759 5762 5765 5767 5769 5772 5776 5779 5783 5787 5790 5793 5797 5799 5800 5801 5801 5804 5810 5814 5815 5817 5819 5822 5827 5829 5829 5833 5839 5843 5845 5847 5849
5745 5744 5743 5742 5740 5739 5739 5738 5737 5736 5735 5734 5733 5732 5732 5731 5731 5730 5730 5730 5729 5728 5728 5728 5727 5727 5726 5726 5726 5726 5726 5726 5726 5726 5727 5727 5727 5727 5726 5726 5725 5724 5724 5723 5724 5726 5728 5729 5731 5734 5738 5742 5744 5746 5748 5750 5754 5759 5762 5764 5767 5771 5775 5778 5781 5784 5788 5791 5793 5794 5795 5797 5801 5806 5810 5812 5813 5815 5819 5824 5826 5824 5827 5832 5836 5839 5843 5846
5746 5745 5743 5742 5740 5740 5739 5738 5737 5735 5734 5733 5732 5730 5730 5729 5728 5727 5727 5726 5726 5725 5725 5724 5724 5723 5723 5723 5723 5723 5723 5723 5723 5723 5723 5723 5723 5723 5723 5722 5721 5720 5719 5718 5718 5719 5720 5721 5723 5725 5729 5734 5735 5736 5739 5743 5748 5756 5761 5764 5765 5767 5770 5772 5774 5778 5780 5783 5787 5788 5789 5792 5796 5800 5805 5808 5810 5812 5815 5820 5823 5822 5823 5827 5830 5833 5837 5840
5748 5746 5744 5742 5741 5740 5739 5737 5736 5735 5733 5732 5730 5729 5728 5727 5725 5724 5724 5723 5723 5722 5721 5721 5720 5720 5720 5720 5720 5721 5720 5721 5721 5720 5720 5720 5720 5719 5719 5718 5718 5717 5715 5714 5714 5715 5714 5715 5716 5717 5721 5725 5725 5725 5730 5735 5742 5751 5759 5760 5759 5758 5761 5764 5766 5769 5771 5775 5780 5781 5783 5789 5793 5796 5800 5803 5805 5808 5811 5815 5820 5820 5818 5819 5824 5828 5831 5835